Time,TemperatureF,DewpointF,PressureIn,WindDirection,WindDirectionDegrees,WindSpeedMPH,WindSpeedGustMPH,Humidity,HourlyPrecipIn,Conditions,Clouds,dailyrainin,SoftwareType,DateUTC
2013-02-04 00:01:00,49.0,46.0,29.89,NNW,339,4.0,9.0,90,0.00,,,0.00,,2013-02-04 00:01:00,
2013-02-04 00:11:00,49.0,46.0,29.89,NNW,339,4.0,9.0,90,0.00,,,0.00,,2013-02-04 00:11:00,
2013-02-04 00:21:00,49.0,46.0,29.89,NNW,344,7.0,13.0,89,0.00,,,0.00,,2013-02-04 00:21:00,
2013-02-04 00:31:00,49.0,46.0,29.88,NW,309,7.0,16.0,89,0.00,,,0.00,,2013-02-04 00:31:00,
2013-02-04 00:42:00,49.0,46.0,29.88,NW,309,7.0,16.0,89,0.00,,,0.00,,2013-02-04 00:42:00,
2013-02-04 00:52:00,49.0,46.0,29.88,NNW,332,9.0,15.0,89,0.00,,,0.00,,2013-02-04 00:52:00,
2013-02-04 01:01:00,48.0,45.0,29.87,WNW,290,9.0,16.0,89,0.00,,,0.00,,2013-02-04 01:01:00,
2013-02-04 01:11:00,48.0,45.0,29.87,WNW,290,9.0,16.0,89,0.00,,,0.00,,2013-02-04 01:11:00,
2013-02-04 01:21:00,48.0,45.0,29.87,WNW,301,6.0,14.0,89,0.00,,,0.00,,2013-02-04 01:21:00,
2013-02-04 01:31:00,48.0,45.0,29.87,NW,305,7.0,14.0,89,0.00,,,0.00,,2013-02-04 01:31:00,
2013-02-04 01:41:00,48.0,45.0,29.87,NW,305,7.0,14.0,89,0.00,,,0.00,,2013-02-04 01:41:00,
2013-02-04 01:52:00,48.0,45.0,29.87,NW,317,5.0,13.0,88,0.00,,,0.00,,2013-02-04 01:52:00,
2013-02-04 02:01:00,48.0,45.0,29.87,NW,317,5.0,13.0,88,0.00,,,0.00,,2013-02-04 02:01:00,
2013-02-04 02:11:00,48.0,45.0,29.87,NW,317,5.0,13.0,88,0.00,,,0.00,,2013-02-04 02:11:00,
2013-02-04 02:21:00,48.0,44.0,29.86,NW,306,7.0,18.0,87,0.00,,,0.00,,2013-02-04 02:21:00,
2013-02-04 02:31:00,48.0,44.0,29.85,NNW,330,7.0,20.0,87,0.00,,,0.00,,2013-02-04 02:31:00,
2013-02-04 02:42:00,48.0,44.0,29.85,NNW,330,7.0,20.0,87,0.00,,,0.00,,2013-02-04 02:42:00,
2013-02-04 02:52:00,48.0,44.0,29.85,NW,309,6.0,16.0,87,0.00,,,0.00,,2013-02-04 02:52:00,
2013-02-04 03:01:00,48.0,44.0,29.85,NW,318,6.0,18.0,87,0.00,,,0.00,,2013-02-04 03:01:00,
2013-02-04 03:11:00,48.0,44.0,29.85,NW,318,6.0,18.0,87,0.00,,,0.00,,2013-02-04 03:11:00,
2013-02-04 03:21:00,48.0,44.0,29.85,NNW,332,7.0,15.0,87,0.00,,,0.00,,2013-02-04 03:21:00,
2013-02-04 03:31:00,49.0,45.0,29.84,NNW,340,11.0,18.0,86,0.00,,,0.00,,2013-02-04 03:31:00,
2013-02-04 03:41:00,49.0,45.0,29.84,NNW,340,11.0,18.0,86,0.00,,,0.00,,2013-02-04 03:41:00,
2013-02-04 03:51:00,49.0,45.0,29.84,NW,304,9.0,16.0,86,0.00,,,0.00,,2013-02-04 03:51:00,
2013-02-04 04:01:00,49.0,45.0,29.83,NW,319,9.0,18.0,86,0.00,,,0.00,,2013-02-04 04:01:00,
2013-02-04 04:11:00,49.0,45.0,29.83,NW,319,9.0,18.0,86,0.00,,,0.00,,2013-02-04 04:11:00,
2013-02-04 04:21:00,50.0,46.0,29.84,North,351,9.0,20.0,86,0.00,,,0.00,,2013-02-04 04:21:00,
2013-02-04 04:31:00,50.0,46.0,29.84,North,351,9.0,20.0,86,0.00,,,0.00,,2013-02-04 04:31:00,
2013-02-04 04:41:00,50.0,46.0,29.84,North,351,9.0,20.0,86,0.00,,,0.00,,2013-02-04 04:41:00,
2013-02-04 04:52:00,50.0,46.0,29.83,NW,325,13.0,23.0,86,0.00,,,0.00,,2013-02-04 04:52:00,
2013-02-04 05:03:00,50.0,46.0,29.83,NW,325,13.0,23.0,86,0.00,,,0.00,,2013-02-04 05:03:00,
2013-02-04 05:11:00,50.0,46.0,29.83,NW,325,13.0,23.0,86,0.00,,,0.00,,2013-02-04 05:11:00,
2013-02-04 05:22:00,50.0,46.0,29.84,NW,325,11.0,25.0,86,0.00,,,0.00,,2013-02-04 05:22:00,
2013-02-04 05:33:00,50.0,46.0,29.84,NW,325,11.0,25.0,86,0.00,,,0.00,,2013-02-04 05:33:00,
2013-02-04 05:42:00,50.0,46.0,29.84,NW,325,11.0,25.0,86,0.00,,,0.00,,2013-02-04 05:42:00,
2013-02-04 05:52:00,50.0,46.0,29.84,NNE,21,9.0,21.0,87,0.00,,,0.00,,2013-02-04 05:52:00,
2013-02-04 06:01:00,50.0,46.0,29.84,NW,311,9.0,16.0,87,0.00,,,0.00,,2013-02-04 06:01:00,
2013-02-04 06:11:00,50.0,46.0,29.84,NW,311,9.0,16.0,87,0.00,,,0.00,,2013-02-04 06:11:00,
2013-02-04 06:21:00,50.0,47.0,29.85,NW,325,6.0,12.0,88,0.00,,,0.00,,2013-02-04 06:21:00,
2013-02-04 06:31:00,50.0,47.0,29.85,NW,325,6.0,12.0,88,0.00,,,0.00,,2013-02-04 06:31:00,
2013-02-04 06:41:00,50.0,47.0,29.85,NW,325,6.0,12.0,88,0.00,,,0.00,,2013-02-04 06:41:00,
2013-02-04 06:52:00,49.0,46.0,29.84,West,269,7.0,18.0,88,0.00,,,0.00,,2013-02-04 06:52:00,
2013-02-04 07:01:00,50.0,47.0,29.84,WNW,285,7.0,12.0,88,0.00,,,0.00,,2013-02-04 07:01:00,
2013-02-04 07:11:00,50.0,47.0,29.84,WNW,285,7.0,12.0,88,0.00,,,0.00,,2013-02-04 07:11:00,
2013-02-04 07:21:00,50.0,46.0,29.85,WNW,303,7.0,13.0,87,0.00,,,0.00,,2013-02-04 07:21:00,
2013-02-04 07:31:00,50.0,46.0,29.85,WNW,296,6.0,20.0,86,0.00,,,0.00,,2013-02-04 07:31:00,
2013-02-04 07:41:00,50.0,46.0,29.85,WNW,296,6.0,20.0,86,0.00,,,0.00,,2013-02-04 07:41:00,
2013-02-04 07:52:00,50.0,46.0,29.85,NNW,348,10.0,18.0,85,0.00,,,0.00,,2013-02-04 07:52:00,
2013-02-04 08:01:00,50.0,46.0,29.85,NNW,348,10.0,18.0,85,0.00,,,0.00,,2013-02-04 08:01:00,
2013-02-04 08:11:00,50.0,46.0,29.85,NNW,348,10.0,18.0,85,0.00,,,0.00,,2013-02-04 08:11:00,
2013-02-04 08:21:00,50.0,45.0,29.86,North,11,12.0,20.0,84,0.00,,,0.00,,2013-02-04 08:21:00,
2013-02-04 08:31:00,50.0,45.0,29.87,NW,325,10.0,17.0,84,0.00,,,0.00,,2013-02-04 08:31:00,
2013-02-04 08:42:00,50.0,45.0,29.87,NW,325,10.0,17.0,84,0.00,,,0.00,,2013-02-04 08:42:00,
2013-02-04 08:52:00,50.0,45.0,29.87,North,349,11.0,21.0,84,0.00,,,0.00,,2013-02-04 08:52:00,
2013-02-04 09:01:00,50.0,45.0,29.87,North,349,11.0,21.0,84,0.00,,,0.00,,2013-02-04 09:01:00,
2013-02-04 09:11:00,50.0,45.0,29.87,North,349,11.0,21.0,84,0.00,,,0.00,,2013-02-04 09:11:00,
2013-02-04 10:21:00,49.0,36.0,29.92,NNE,23,16.0,22.0,61,0.00,,,0.00,,2013-02-04 10:21:00,
2013-02-04 10:32:00,49.0,36.0,29.92,NNE,23,16.0,22.0,61,0.00,,,0.00,,2013-02-04 10:32:00,
2013-02-04 10:42:00,49.0,36.0,29.92,NNE,23,16.0,22.0,61,0.00,,,0.00,,2013-02-04 10:42:00,
2013-02-04 10:52:00,50.0,36.0,29.92,North,8,13.0,24.0,59,0.00,,,0.00,,2013-02-04 10:52:00,
2013-02-04 11:01:00,50.0,37.0,29.92,North,4,11.0,20.0,60,0.00,,,0.00,,2013-02-04 11:01:00,
2013-02-04 11:11:00,50.0,37.0,29.92,North,4,11.0,20.0,60,0.00,,,0.00,,2013-02-04 11:11:00,
2013-02-04 11:22:00,50.0,36.0,29.92,North,6,11.0,23.0,59,0.00,,,0.00,,2013-02-04 11:22:00,
2013-02-04 11:32:00,50.0,37.0,29.92,North,357,16.0,23.0,60,0.00,,,0.00,,2013-02-04 11:32:00,
2013-02-04 11:41:00,50.0,37.0,29.92,North,357,16.0,23.0,60,0.00,,,0.00,,2013-02-04 11:41:00,
2013-02-04 11:52:00,50.0,37.0,29.92,North,357,16.0,23.0,60,0.00,,,0.00,,2013-02-04 11:52:00,
2013-02-04 12:02:00,50.0,37.0,29.92,North,357,16.0,23.0,60,0.00,,,0.00,,2013-02-04 12:02:00,
2013-02-04 12:22:00,51.0,38.0,29.91,North,4,18.0,29.0,61,0.00,,,0.00,,2013-02-04 12:22:00,
2013-02-04 12:33:00,51.0,38.0,29.91,North,4,18.0,29.0,61,0.00,,,0.00,,2013-02-04 12:33:00,
2013-02-04 12:42:00,51.0,38.0,29.91,North,4,18.0,29.0,61,0.00,,,0.00,,2013-02-04 12:42:00,
2013-02-04 12:52:00,51.0,38.0,29.91,North,4,18.0,29.0,61,0.00,,,0.00,,2013-02-04 12:52:00,
2013-02-04 13:01:00,51.0,36.0,29.91,North,0,13.0,26.0,56,0.00,,,0.00,,2013-02-04 13:01:00,
2013-02-04 13:11:00,51.0,37.0,29.91,NW,325,14.0,23.0,59,0.00,,,0.00,,2013-02-04 13:11:00,
2013-02-04 13:21:00,51.0,37.0,29.91,NW,325,14.0,23.0,59,0.00,,,0.00,,2013-02-04 13:21:00,
2013-02-04 13:32:00,50.0,37.0,29.91,North,357,14.0,26.0,61,0.00,,,0.00,,2013-02-04 13:32:00,
2013-02-04 13:41:00,50.0,37.0,29.91,North,357,14.0,26.0,61,0.00,,,0.00,,2013-02-04 13:41:00,
2013-02-04 13:51:00,50.0,37.0,29.91,NNW,339,13.0,23.0,61,0.00,,,0.00,,2013-02-04 13:51:00,
2013-02-04 14:02:00,50.0,36.0,29.91,NNW,332,14.0,25.0,59,0.00,,,0.00,,2013-02-04 14:02:00,
2013-02-04 14:11:00,50.0,36.0,29.91,NNW,332,14.0,25.0,59,0.00,,,0.00,,2013-02-04 14:11:00,
2013-02-04 14:21:00,50.0,36.0,29.91,North,2,12.0,24.0,59,0.00,,,0.00,,2013-02-04 14:21:00,
2013-02-04 14:32:00,50.0,36.0,29.90,NNW,336,16.0,26.0,58,0.00,,,0.00,,2013-02-04 14:32:00,
2013-02-04 14:42:00,50.0,36.0,29.90,NNW,336,16.0,26.0,58,0.00,,,0.00,,2013-02-04 14:42:00,
2013-02-04 14:52:00,50.0,36.0,29.90,NNW,340,15.0,24.0,58,0.00,,,0.00,,2013-02-04 14:52:00,
2013-02-04 15:03:00,50.0,36.0,29.90,NNW,340,15.0,24.0,58,0.00,,,0.00,,2013-02-04 15:03:00,
2013-02-04 15:11:00,50.0,36.0,29.90,NNW,340,15.0,24.0,58,0.00,,,0.00,,2013-02-04 15:11:00,
2013-02-04 15:22:00,49.0,35.0,29.89,North,4,12.0,23.0,58,0.00,,,0.00,,2013-02-04 15:22:00,
2013-02-04 15:33:00,50.0,36.0,29.89,NNW,327,7.0,17.0,59,0.00,,,0.00,,2013-02-04 15:33:00,
2013-02-04 15:43:00,50.0,36.0,29.89,NNW,327,7.0,17.0,59,0.00,,,0.00,,2013-02-04 15:43:00,
2013-02-04 15:52:00,50.0,36.0,29.89,NW,308,11.0,21.0,58,0.00,,,0.00,,2013-02-04 15:52:00,
2013-02-04 16:01:00,50.0,35.0,29.89,WNW,302,9.0,21.0,57,0.00,,,0.00,,2013-02-04 16:01:00,
2013-02-04 16:11:00,50.0,35.0,29.89,WNW,302,9.0,21.0,57,0.00,,,0.00,,2013-02-04 16:11:00,
2013-02-04 16:21:00,49.0,35.0,29.89,WNW,294,12.0,21.0,59,0.00,,,0.00,,2013-02-04 16:21:00,
2013-02-04 16:32:00,49.0,36.0,29.89,NNW,335,10.0,20.0,61,0.00,,,0.00,,2013-02-04 16:32:00,
2013-02-04 16:42:00,49.0,36.0,29.89,NNW,335,10.0,20.0,61,0.00,,,0.00,,2013-02-04 16:42:00,
2013-02-04 16:51:00,48.0,37.0,29.89,NNW,329,11.0,20.0,65,0.00,,,0.00,,2013-02-04 16:51:00,
2013-02-04 17:01:00,48.0,37.0,29.88,NW,324,9.0,20.0,65,0.00,,,0.00,,2013-02-04 17:01:00,
2013-02-04 17:11:00,48.0,37.0,29.88,NW,324,9.0,20.0,65,0.00,,,0.00,,2013-02-04 17:11:00,
2013-02-04 17:21:00,48.0,37.0,29.89,North,351,9.0,20.0,65,0.00,,,0.00,,2013-02-04 17:21:00,
2013-02-04 17:31:00,47.0,37.0,29.88,NNW,327,11.0,17.0,67,0.00,,,0.00,,2013-02-04 17:31:00,
2013-02-04 17:42:00,47.0,37.0,29.88,NNW,327,11.0,17.0,67,0.00,,,0.00,,2013-02-04 17:42:00,
2013-02-04 17:52:00,46.0,36.0,29.88,NW,313,6.0,16.0,69,0.00,,,0.00,,2013-02-04 17:52:00,
2013-02-04 18:02:00,46.0,37.0,29.88,NW,315,12.0,21.0,70,0.00,,,0.00,,2013-02-04 18:02:00,
2013-02-04 18:11:00,46.0,37.0,29.88,NW,315,12.0,21.0,70,0.00,,,0.00,,2013-02-04 18:11:00,
2013-02-04 18:21:00,46.0,37.0,29.87,NNW,329,10.0,18.0,71,0.00,,,0.00,,2013-02-04 18:21:00,
2013-02-04 18:31:00,46.0,37.0,29.88,WNW,292,9.0,16.0,71,0.00,,,0.00,,2013-02-04 18:31:00,
2013-02-04 18:41:00,46.0,37.0,29.88,WNW,292,9.0,16.0,71,0.00,,,0.00,,2013-02-04 18:41:00,
2013-02-04 18:52:00,45.0,37.0,29.87,WNW,295,7.0,15.0,73,0.00,,,0.00,,2013-02-04 18:52:00,
2013-02-04 19:01:00,45.0,37.0,29.87,WNW,295,7.0,15.0,73,0.00,,,0.00,,2013-02-04 19:01:00,
2013-02-04 19:11:00,45.0,37.0,29.87,WNW,295,7.0,15.0,73,0.00,,,0.00,,2013-02-04 19:11:00,
2013-02-04 19:21:00,45.0,37.0,29.85,NNW,343,9.0,23.0,73,0.00,,,0.00,,2013-02-04 19:21:00,
2013-02-04 19:31:00,45.0,37.0,29.85,WNW,298,9.0,17.0,73,0.00,,,0.00,,2013-02-04 19:31:00,
2013-02-04 19:42:00,45.0,37.0,29.85,WNW,298,9.0,17.0,73,0.00,,,0.00,,2013-02-04 19:42:00,
2013-02-04 19:52:00,45.0,37.0,29.85,WNW,294,10.0,22.0,73,0.00,,,0.00,,2013-02-04 19:52:00,
2013-02-04 20:01:00,45.0,37.0,29.84,NW,309,13.0,21.0,73,0.00,,,0.00,,2013-02-04 20:01:00,
2013-02-04 20:11:00,45.0,37.0,29.84,NW,309,13.0,21.0,73,0.00,,,0.00,,2013-02-04 20:11:00,
2013-02-04 20:21:00,45.0,37.0,29.84,NW,309,13.0,21.0,73,0.00,,,0.00,,2013-02-04 20:21:00,
2013-02-04 20:31:00,44.0,36.0,29.83,WNW,294,6.0,21.0,74,0.00,,,0.00,,2013-02-04 20:31:00,
2013-02-04 20:42:00,44.0,36.0,29.83,WNW,294,6.0,21.0,74,0.00,,,0.00,,2013-02-04 20:42:00,
2013-02-04 20:52:00,44.0,37.0,29.83,WNW,301,12.0,23.0,75,0.00,,,0.00,,2013-02-04 20:52:00,
2013-02-04 21:01:00,44.0,37.0,29.82,West,277,13.0,22.0,76,0.00,,,0.00,,2013-02-04 21:01:00,
2013-02-04 21:11:00,44.0,37.0,29.82,West,277,13.0,22.0,76,0.00,,,0.00,,2013-02-04 21:11:00,
2013-02-04 21:22:00,44.0,37.0,29.82,West,277,13.0,22.0,76,0.00,,,0.00,,2013-02-04 21:22:00,
2013-02-04 21:31:00,44.0,37.0,29.81,West,279,12.0,21.0,75,0.00,,,0.00,,2013-02-04 21:31:00,
2013-02-04 21:42:00,44.0,37.0,29.81,West,279,12.0,21.0,75,0.00,,,0.00,,2013-02-04 21:42:00,
2013-02-04 21:52:00,44.0,37.0,29.81,NW,309,9.0,18.0,75,0.00,,,0.00,,2013-02-04 21:52:00,
2013-02-04 22:02:00,44.0,37.0,29.79,WNW,290,7.0,18.0,76,0.00,,,0.00,,2013-02-04 22:02:00,
2013-02-04 22:11:00,44.0,37.0,29.79,WNW,290,7.0,18.0,76,0.00,,,0.00,,2013-02-04 22:11:00,
2013-02-04 22:21:00,43.0,36.0,29.79,WNW,294,11.0,18.0,77,0.00,,,0.00,,2013-02-04 22:21:00,
2013-02-04 22:32:00,43.0,37.0,29.78,West,274,10.0,17.0,79,0.00,,,0.00,,2013-02-04 22:32:00,
2013-02-04 22:41:00,43.0,37.0,29.78,West,274,10.0,17.0,79,0.00,,,0.00,,2013-02-04 22:41:00,
2013-02-04 22:51:00,43.0,37.0,29.76,WNW,298,10.0,20.0,79,0.00,,,0.00,,2013-02-04 22:51:00,
2013-02-04 23:01:00,43.0,37.0,29.76,WNW,295,12.0,17.0,79,0.00,,,0.00,,2013-02-04 23:01:00,
2013-02-04 23:11:00,43.0,37.0,29.76,WNW,295,12.0,17.0,79,0.00,,,0.00,,2013-02-04 23:11:00,
2013-02-04 23:21:00,43.0,37.0,29.74,WNW,292,8.0,18.0,80,0.00,,,0.00,,2013-02-04 23:21:00,
2013-02-04 23:31:00,43.0,37.0,29.74,WNW,287,10.0,20.0,80,0.00,,,0.00,,2013-02-04 23:31:00,
2013-02-04 23:41:00,43.0,37.0,29.74,WNW,287,10.0,20.0,80,0.00,,,0.00,,2013-02-04 23:41:00,
2013-02-04 23:52:00,43.0,37.0,29.72,WNW,285,12.0,20.0,80,0.00,,,0.00,,2013-02-04 23:52:00,